Regional Weather Roundup
Issued by NWS

Home | Current Version | Previous Version | Graphics & Text | Print | Product List | Glossary On
Versions: 1 2 3 4 5 6 7 8 9 10 11 12 13 14 15 16 17 18 19 20 21 22 23 24 25 26 27 28 29 30 31 32 33 34 35 36 37 38 39 40 41 42 43 44 45 46 47 48 49 50
000
ASUS43 KBIS 160902
RWRND

NORTH DAKOTA REGIONAL WEATHER ROUNDUP
NATIONAL WEATHER SERVICE BISMARCK ND
400 AM CDT WED AUG 16 2017

NOTE: "FAIR" INDICATES FEW OR NO CLOUDS BELOW 12,000 FEET WITH NO
SIGNIFICANT WEATHER AND/OR OBSTRUCTIONS TO VISIBILITY.


NDZ001>003-009>011-017-161000-
NORTHWEST NORTH DAKOTA

CITY           SKY/WX    TMP DP  RH WIND       PRES   REMARKS
WILLISTON      CLEAR     57  55  93 CALM      29.93R
MINOT          FOG       60  59  96 CALM      29.90R VSB 1/4
MINOT AFB      FOG       57  56  99 S3        29.88S VSB 1/4
$$

NDZ018>021-031>035-040>046-161000-
SOUTHWEST NORTH DAKOTA

CITY           SKY/WX    TMP DP  RH WIND       PRES   REMARKS
BISMARCK       CLOUDY    62  61  96 NW10      29.89R
DICKINSON      FOG       58  58 100 W6        29.91S VSB 1/4
GARRISON         N/A     57  57 100 NE5       29.90R
HETTINGER ARPT CLOUDY    60  58  92 NW7       29.94S
$$

NDZ004>008-012>016-024-026-027-054-161000-
NORTHEAST NORTH DAKOTA

CITY           SKY/WX    TMP DP  RH WIND       PRES   REMARKS
GRAND FORKS    CLOUDY    66  62  87 SE13      29.87S
GRND FRKS AFB  CLOUDY    64  62  93 SE6       29.87S
DEVILS LAKE    LGT RAIN  61  60  97 NE10      29.87S
$$

NDZ022-023-025-028>030-036>039-047>053-161000-
SOUTHEAST NORTH DAKOTA

CITY           SKY/WX    TMP DP  RH WIND       PRES   REMARKS
FARGO          CLOUDY    66  61  84 SE7       29.87R
JAMESTOWN      LGT RAIN  64  63  96 SE8       29.83S FOG
$$





USA.gov is the U.S. government's official web portal to all federal, state and local government web resources and services.